Time,TemperatureF,DewpointF,PressureIn,WindDirection,WindDirectionDegrees,WindSpeedMPH,WindSpeedGustMPH,Humidity,HourlyPrecipIn,Conditions,Clouds,dailyrainin,SoftwareType,DateUTC
2013-09-24 00:01:00,66.0,54.7,29.62,SE,140,7.0,15.0,67,0.00,,,0.00,meteohub,2013-09-24 05:01:00,
2013-09-24 00:06:00,66.0,55.2,29.62,SE,130,6.0,15.0,67,0.00,,,0.00,meteohub,2013-09-24 05:06:00,
2013-09-24 00:11:00,66.0,55.0,29.62,ESE,109,3.0,15.0,68,0.00,,,0.00,meteohub,2013-09-24 05:11:00,
2013-09-24 00:16:00,66.0,55.0,29.62,SE,140,5.0,15.0,68,0.00,,,0.00,meteohub,2013-09-24 05:16:00,
2013-09-24 00:21:00,66.0,55.0,29.62,SE,131,0.0,14.0,68,0.00,,,0.00,meteohub,2013-09-24 05:21:00,
2013-09-24 00:26:00,66.0,55.0,29.62,East,92,2.0,14.0,68,0.00,,,0.00,meteohub,2013-09-24 05:26:00,
2013-09-24 00:32:00,66.0,55.4,29.62,ESE,121,8.0,12.0,69,0.00,,,0.00,meteohub,2013-09-24 05:32:00,
2013-09-24 00:37:00,66.0,55.2,29.62,ESE,123,7.0,12.0,69,0.00,,,0.00,meteohub,2013-09-24 05:37:00,
2013-09-24 00:42:00,66.0,55.2,29.62,SE,138,4.0,12.0,69,0.00,,,0.00,meteohub,2013-09-24 05:42:00,
2013-09-24 00:47:00,64.9,55.4,29.62,East,96,0.0,10.0,69,0.00,,,0.00,meteohub,2013-09-24 05:47:00,
2013-09-24 00:52:00,64.9,55.2,29.62,East,94,0.0,10.0,70,0.00,,,0.00,meteohub,2013-09-24 05:52:00,
2013-09-24 00:57:00,64.9,55.4,29.62,East,101,0.0,8.0,70,0.00,,,0.00,meteohub,2013-09-24 05:57:00,
2013-09-24 01:02:00,64.9,55.0,29.62,ESE,102,8.0,8.0,71,0.00,,,0.00,meteohub,2013-09-24 06:02:00,
2013-09-24 01:07:00,64.9,55.0,29.62,East,91,0.0,8.0,70,0.00,,,0.00,meteohub,2013-09-24 06:07:00,
2013-09-24 01:12:00,64.9,54.9,29.62,East,88,0.0,8.0,71,0.00,,,0.00,meteohub,2013-09-24 06:12:00,
2013-09-24 01:17:00,64.9,55.4,29.62,East,94,5.0,8.0,71,0.00,,,0.00,meteohub,2013-09-24 06:17:00,
2013-09-24 01:22:00,64.0,55.2,29.62,ESE,102,0.0,9.0,72,0.00,,,0.00,meteohub,2013-09-24 06:22:00,
2013-09-24 01:27:00,64.0,55.2,29.62,East,96,0.0,9.0,72,0.00,,,0.00,meteohub,2013-09-24 06:27:00,
2013-09-24 01:32:00,64.0,55.0,29.62,East,101,7.0,9.0,73,0.00,,,0.00,meteohub,2013-09-24 06:32:00,
2013-09-24 01:37:00,64.0,55.2,29.61,ESE,116,1.0,9.0,73,0.00,,,0.00,meteohub,2013-09-24 06:37:00,
2013-09-24 01:42:00,64.0,55.0,29.61,ESE,108,0.0,11.0,73,0.00,,,0.00,meteohub,2013-09-24 06:42:00,
2013-09-24 01:47:00,64.0,55.0,29.61,East,82,2.0,11.0,73,0.00,,,0.00,meteohub,2013-09-24 06:47:00,
2013-09-24 01:52:00,63.0,54.9,29.61,ESE,110,0.0,11.0,74,0.00,,,0.00,meteohub,2013-09-24 06:52:00,
2013-09-24 01:57:00,63.0,55.0,29.61,ESE,105,3.0,8.0,74,0.00,,,0.00,meteohub,2013-09-24 06:57:00,
2013-09-24 02:02:00,63.0,54.9,29.61,East,91,3.0,8.0,74,0.00,,,0.00,meteohub,2013-09-24 07:02:00,
2013-09-24 02:07:00,63.0,54.9,29.62,ENE,69,0.0,8.0,75,0.00,,,0.00,meteohub,2013-09-24 07:07:00,
2013-09-24 02:12:00,62.1,54.9,29.62,East,82,6.0,6.0,76,0.00,,,0.00,meteohub,2013-09-24 07:12:00,
2013-09-24 02:17:00,62.1,54.9,29.62,ENE,68,0.0,6.0,77,0.00,,,0.00,meteohub,2013-09-24 07:17:00,
2013-09-24 02:22:00,61.0,54.7,29.62,ENE,68,0.0,6.0,78,0.00,,,0.00,meteohub,2013-09-24 07:22:00,
2013-09-24 02:27:00,61.0,54.7,29.62,ENE,73,0.0,6.0,78,0.00,,,0.00,meteohub,2013-09-24 07:27:00,
2013-09-24 02:32:00,61.0,54.9,29.62,ENE,75,0.0,5.0,79,0.00,,,0.00,meteohub,2013-09-24 07:32:00,
2013-09-24 02:37:00,61.0,54.7,29.62,ENE,72,0.0,5.0,80,0.00,,,0.00,meteohub,2013-09-24 07:37:00,
2013-09-24 02:42:00,60.1,54.7,29.62,ENE,77,0.0,5.0,80,0.00,,,0.00,meteohub,2013-09-24 07:42:00,
2013-09-24 02:47:00,60.1,54.7,29.62,ENE,70,2.0,7.0,81,0.00,,,0.00,meteohub,2013-09-24 07:47:00,
2013-09-24 02:52:00,60.1,54.7,29.62,East,94,0.0,7.0,81,0.00,,,0.00,meteohub,2013-09-24 07:52:00,
2013-09-24 02:58:00,60.1,54.7,29.62,East,98,0.0,5.0,82,0.00,,,0.00,meteohub,2013-09-24 07:58:00,
2013-09-24 03:03:00,60.1,54.5,29.63,East,98,0.0,5.0,81,0.00,,,0.00,meteohub,2013-09-24 08:03:00,
2013-09-24 03:08:00,60.1,54.3,29.63,East,98,0.0,3.0,82,0.00,,,0.00,meteohub,2013-09-24 08:08:00,
2013-09-24 03:13:00,59.0,54.5,29.63,East,98,0.0,0.0,83,0.00,,,0.00,meteohub,2013-09-24 08:13:00,
2013-09-24 03:18:00,59.0,54.5,29.63,ENE,78,0.0,0.0,83,0.00,,,0.00,meteohub,2013-09-24 08:18:00,
2013-09-24 03:23:00,59.0,54.5,29.62,ENE,63,0.0,3.0,84,0.00,,,0.00,meteohub,2013-09-24 08:23:00,
2013-09-24 03:28:00,59.0,54.5,29.63,ENE,59,0.0,3.0,83,0.00,,,0.00,meteohub,2013-09-24 08:28:00,
2013-09-24 03:33:00,59.0,54.9,29.63,NE,53,3.0,4.0,84,0.00,,,0.00,meteohub,2013-09-24 08:33:00,
2013-09-24 03:38:00,59.0,54.9,29.63,NE,55,0.0,5.0,84,0.00,,,0.00,meteohub,2013-09-24 08:38:00,
2013-09-24 03:43:00,59.0,54.9,29.63,NE,55,0.0,5.0,84,0.00,,,0.00,meteohub,2013-09-24 08:43:00,
2013-09-24 03:48:00,60.1,54.9,29.63,NE,55,0.0,5.0,84,0.00,,,0.00,meteohub,2013-09-24 08:48:00,
2013-09-24 03:53:00,60.1,54.9,29.63,NE,56,0.0,1.0,84,0.00,,,0.00,meteohub,2013-09-24 08:53:00,
2013-09-24 03:58:00,60.1,54.9,29.63,NE,56,0.0,2.0,84,0.00,,,0.00,meteohub,2013-09-24 08:58:00,
2013-09-24 04:03:00,60.1,54.9,29.63,ENE,57,0.0,2.0,84,0.00,,,0.00,meteohub,2013-09-24 09:03:00,
2013-09-24 04:08:00,60.1,55.2,29.63,NE,56,0.0,2.0,84,0.00,,,0.00,meteohub,2013-09-24 09:08:00,
2013-09-24 04:13:00,60.1,55.2,29.64,NE,46,0.0,2.0,84,0.00,,,0.00,meteohub,2013-09-24 09:13:00,
2013-09-24 04:18:00,60.1,55.2,29.64,NE,46,0.0,2.0,84,0.00,,,0.00,meteohub,2013-09-24 09:18:00,
2013-09-24 04:24:00,60.1,55.2,29.64,NE,46,0.0,2.0,84,0.00,,,0.00,meteohub,2013-09-24 09:24:00,
2013-09-24 04:29:00,60.1,55.2,29.65,NE,55,3.0,4.0,84,0.00,,,0.00,meteohub,2013-09-24 09:29:00,
2013-09-24 04:34:00,60.1,55.2,29.65,ENE,57,2.0,4.0,84,0.00,,,0.00,meteohub,2013-09-24 09:34:00,
2013-09-24 04:39:00,60.1,55.2,29.65,ENE,57,0.0,4.0,84,0.00,,,0.00,meteohub,2013-09-24 09:39:00,
2013-09-24 04:44:00,60.1,55.2,29.65,ENE,57,0.0,4.0,85,0.00,,,0.00,meteohub,2013-09-24 09:44:00,
2013-09-24 04:49:00,60.1,55.6,29.65,ENE,57,0.0,4.0,85,0.00,,,0.00,meteohub,2013-09-24 09:49:00,
2013-09-24 04:54:00,60.1,55.6,29.65,NE,44,0.0,4.0,85,0.00,,,0.00,meteohub,2013-09-24 09:54:00,
2013-09-24 04:59:00,60.1,55.6,29.65,NE,44,0.0,5.0,85,0.00,,,0.00,meteohub,2013-09-24 09:59:00,
2013-09-24 05:04:00,60.1,55.6,29.66,NE,38,2.0,5.0,85,0.00,,,0.00,meteohub,2013-09-24 10:04:00,
2013-09-24 05:09:00,60.1,55.4,29.66,NE,42,0.0,5.0,85,0.00,,,0.00,meteohub,2013-09-24 10:09:00,
2013-09-24 05:14:00,59.0,55.2,29.66,NE,40,0.0,4.0,85,0.00,,,0.00,meteohub,2013-09-24 10:14:00,
2013-09-24 05:19:00,59.0,55.2,29.66,NE,46,0.0,4.0,85,0.00,,,0.00,meteohub,2013-09-24 10:19:00,
2013-09-24 05:24:00,59.0,55.2,29.66,NE,45,0.0,5.0,86,0.00,,,0.00,meteohub,2013-09-24 10:24:00,
2013-09-24 05:29:00,59.0,55.0,29.66,NE,46,0.0,5.0,86,0.00,,,0.00,meteohub,2013-09-24 10:29:00,
2013-09-24 05:34:00,59.0,54.9,29.67,NE,46,0.0,5.0,86,0.00,,,0.00,meteohub,2013-09-24 10:34:00,
2013-09-24 05:39:00,57.9,55.0,29.67,NE,46,0.0,2.0,86,0.00,,,0.00,meteohub,2013-09-24 10:39:00,
2013-09-24 05:44:00,57.9,54.5,29.67,NE,46,0.0,2.0,87,0.00,,,0.00,meteohub,2013-09-24 10:44:00,
2013-09-24 05:50:00,57.9,54.3,29.67,NE,46,0.0,2.0,87,0.00,,,0.00,meteohub,2013-09-24 10:50:00,
2013-09-24 05:55:00,57.0,54.3,29.68,NE,46,0.0,0.0,86,0.00,,,0.00,meteohub,2013-09-24 10:55:00,
2013-09-24 06:00:00,57.0,54.0,29.68,NE,46,0.0,0.0,88,0.00,,,0.00,meteohub,2013-09-24 11:00:00,
2013-09-24 06:05:00,57.0,54.0,29.68,NE,46,0.0,0.0,88,0.00,,,0.00,meteohub,2013-09-24 11:05:00,
2013-09-24 06:10:00,57.0,54.3,29.68,NE,46,3.0,0.0,89,0.00,,,0.00,meteohub,2013-09-24 11:10:00,
2013-09-24 06:15:00,55.9,54.3,29.68,NE,38,3.0,3.0,92,0.00,,,0.00,meteohub,2013-09-24 11:15:00,
2013-09-24 06:20:00,55.9,54.3,29.68,NE,39,1.0,5.0,90,0.00,,,0.00,meteohub,2013-09-24 11:20:00,
2013-09-24 06:25:00,55.9,54.3,29.69,NE,39,0.0,5.0,90,0.00,,,0.00,meteohub,2013-09-24 11:25:00,
2013-09-24 06:30:00,55.9,54.3,29.69,NE,38,0.0,5.0,91,0.00,,,0.00,meteohub,2013-09-24 11:30:00,
2013-09-24 06:35:00,55.9,54.1,29.69,NE,41,0.0,3.0,90,0.00,,,0.00,meteohub,2013-09-24 11:35:00,
2013-09-24 06:40:00,55.9,54.0,29.69,NNE,28,5.0,5.0,91,0.00,,,0.00,meteohub,2013-09-24 11:40:00,
2013-09-24 06:45:00,55.9,54.1,29.69,NNE,30,0.0,7.0,90,0.00,,,0.00,meteohub,2013-09-24 11:45:00,
2013-09-24 06:51:00,55.9,54.1,29.70,NE,36,0.0,7.0,90,0.00,,,0.00,meteohub,2013-09-24 11:51:00,
2013-09-24 06:56:00,55.9,54.1,29.70,NE,40,3.0,7.0,91,0.00,,,0.00,meteohub,2013-09-24 11:56:00,
2013-09-24 07:01:00,55.9,54.1,29.71,NNE,19,2.0,7.0,92,0.00,,,0.00,meteohub,2013-09-24 12:01:00,
2013-09-24 07:07:00,55.9,54.5,29.71,NNE,30,0.0,7.0,92,0.00,,,0.00,meteohub,2013-09-24 12:07:00,
2013-09-24 07:12:00,55.0,54.1,29.71,NNE,27,0.0,7.0,91,0.00,,,0.00,meteohub,2013-09-24 12:12:00,
2013-09-24 07:17:00,55.0,54.1,29.71,NNE,26,0.0,5.0,91,0.00,,,0.00,meteohub,2013-09-24 12:17:00,
2013-09-24 07:22:00,55.0,54.1,29.72,NNE,17,0.0,5.0,91,0.00,,,0.00,meteohub,2013-09-24 12:22:00,
2013-09-24 07:27:00,55.0,54.1,29.72,NNE,13,0.0,4.0,91,0.00,,,0.00,meteohub,2013-09-24 12:27:00,
2013-09-24 07:32:00,55.0,54.1,29.73,NNE,19,0.0,2.0,92,0.00,,,0.00,meteohub,2013-09-24 12:32:00,
2013-09-24 07:37:00,55.0,54.5,29.73,North,10,0.0,2.0,92,0.00,,,0.00,meteohub,2013-09-24 12:37:00,
2013-09-24 07:42:00,55.0,54.7,29.73,NNW,340,2.0,7.0,93,0.00,,,0.00,meteohub,2013-09-24 12:42:00,
2013-09-24 07:47:00,55.0,54.9,29.73,North,350,2.0,7.0,93,0.00,,,0.00,meteohub,2013-09-24 12:47:00,
2013-09-24 07:52:00,55.9,54.9,29.74,NE,42,0.0,7.0,93,0.00,,,0.00,meteohub,2013-09-24 12:52:00,
2013-09-24 07:57:00,55.9,55.0,29.74,North,351,2.0,9.0,93,0.00,,,0.00,meteohub,2013-09-24 12:57:00,
2013-09-24 08:02:00,55.9,54.9,29.74,North,0,3.0,9.0,93,0.00,,,0.00,meteohub,2013-09-24 13:02:00,
2013-09-24 08:07:00,55.9,55.0,29.74,NNE,16,3.0,11.0,92,0.00,,,0.00,meteohub,2013-09-24 13:07:00,
2013-09-24 08:12:00,57.0,55.2,29.74,NNE,17,7.0,12.0,92,0.00,,,0.00,meteohub,2013-09-24 13:12:00,
2013-09-24 08:17:00,57.0,55.2,29.74,NNE,28,6.0,12.0,91,0.00,,,0.00,meteohub,2013-09-24 13:17:00,
2013-09-24 08:22:00,57.0,55.4,29.74,North,5,5.0,11.0,91,0.00,,,0.00,meteohub,2013-09-24 13:22:00,
2013-09-24 08:27:00,57.0,55.2,29.74,North,5,5.0,11.0,91,0.00,,,0.00,meteohub,2013-09-24 13:27:00,
2013-09-24 08:32:00,57.9,55.6,29.75,NNW,342,0.0,11.0,90,0.00,,,0.00,meteohub,2013-09-24 13:32:00,
2013-09-24 08:37:00,57.9,55.6,29.75,North,5,2.0,11.0,90,0.00,,,0.00,meteohub,2013-09-24 13:37:00,
2013-09-24 08:42:00,57.9,55.8,29.75,NNW,338,3.0,8.0,90,0.00,,,0.00,meteohub,2013-09-24 13:42:00,
2013-09-24 08:47:00,59.0,56.1,29.75,NNW,338,8.0,10.0,89,0.00,,,0.00,meteohub,2013-09-24 13:47:00,
2013-09-24 08:52:00,59.0,55.9,29.76,NW,321,5.0,10.0,88,0.00,,,0.00,meteohub,2013-09-24 13:52:00,
2013-09-24 08:57:00,60.1,56.1,29.76,NW,306,6.0,10.0,88,0.00,,,0.00,meteohub,2013-09-24 13:57:00,
2013-09-24 09:02:00,60.1,56.5,29.77,NW,313,2.0,9.0,87,0.00,,,0.00,meteohub,2013-09-24 14:02:00,
2013-09-24 09:07:00,61.0,56.5,29.77,NW,322,0.0,9.0,87,0.00,,,0.00,meteohub,2013-09-24 14:07:00,
2013-09-24 09:13:00,62.1,56.8,29.77,WNW,282,8.0,9.0,85,0.00,,,0.00,meteohub,2013-09-24 14:13:00,
2013-09-24 09:18:00,62.1,56.8,29.78,WNW,295,4.0,9.0,85,0.00,,,0.00,meteohub,2013-09-24 14:18:00,
2013-09-24 09:23:00,62.1,57.0,29.78,NW,321,2.0,9.0,84,0.00,,,0.00,meteohub,2013-09-24 14:23:00,
2013-09-24 09:28:00,63.0,57.2,29.78,NW,306,6.0,9.0,84,0.00,,,0.00,meteohub,2013-09-24 14:28:00,
2013-09-24 09:34:00,63.0,57.2,29.78,NW,321,2.0,9.0,82,0.00,,,0.00,meteohub,2013-09-24 14:34:00,
2013-09-24 09:39:00,63.0,57.2,29.78,NE,44,5.0,11.0,81,0.00,,,0.00,meteohub,2013-09-24 14:39:00,
2013-09-24 09:44:00,63.0,57.4,29.78,NW,324,1.0,12.0,82,0.00,,,0.00,meteohub,2013-09-24 14:44:00,
2013-09-24 09:49:00,64.0,57.7,29.79,WNW,285,0.0,12.0,83,0.00,,,0.00,meteohub,2013-09-24 14:49:00,
2013-09-24 09:54:00,64.9,58.3,29.79,NW,312,3.0,12.0,82,0.00,,,0.00,meteohub,2013-09-24 14:54:00,
2013-09-24 09:59:00,64.9,58.1,29.79,NNW,341,1.0,12.0,80,0.00,,,0.00,meteohub,2013-09-24 14:59:00,
2013-09-24 10:04:00,66.0,57.7,29.80,North,0,4.0,8.0,78,0.00,,,0.00,meteohub,2013-09-24 15:04:00,
2013-09-24 10:10:00,66.0,57.6,29.80,NW,319,3.0,11.0,77,0.00,,,0.00,meteohub,2013-09-24 15:10:00,
2013-09-24 10:15:00,66.9,58.1,29.80,ENE,62,7.0,11.0,76,0.00,,,0.00,meteohub,2013-09-24 15:15:00,
2013-09-24 10:20:00,66.9,57.6,29.80,NNE,23,6.0,12.0,75,0.00,,,0.00,meteohub,2013-09-24 15:20:00,
2013-09-24 10:25:00,66.9,57.2,29.80,NNE,28,9.0,12.0,74,0.00,,,0.00,meteohub,2013-09-24 15:25:00,
2013-09-24 10:31:00,66.9,57.4,29.81,NNW,329,7.0,13.0,74,0.00,,,0.00,meteohub,2013-09-24 15:31:00,
2013-09-24 10:36:00,66.9,57.4,29.81,NW,306,6.0,13.0,74,0.00,,,0.00,meteohub,2013-09-24 15:36:00,
2013-09-24 10:41:00,68.0,58.6,29.81,WNW,293,3.0,13.0,73,0.00,,,0.00,meteohub,2013-09-24 15:41:00,
2013-09-24 10:46:00,68.0,57.2,29.81,NNE,24,5.0,10.0,71,0.00,,,0.00,meteohub,2013-09-24 15:46:00,
2013-09-24 10:51:00,68.0,58.1,29.81,NNE,24,11.0,12.0,74,0.00,,,0.00,meteohub,2013-09-24 15:51:00,
2013-09-24 10:56:00,68.0,57.2,29.81,NW,320,4.0,12.0,71,0.00,,,0.00,meteohub,2013-09-24 15:56:00,
2013-09-24 11:01:00,69.1,57.9,29.81,NW,323,7.0,13.0,71,0.00,,,0.00,meteohub,2013-09-24 16:01:00,
2013-09-24 11:06:00,69.1,57.9,29.82,NNE,33,5.0,13.0,71,0.00,,,0.00,meteohub,2013-09-24 16:06:00,
2013-09-24 11:11:00,69.1,57.6,29.82,NW,325,6.0,12.0,70,0.00,,,0.00,meteohub,2013-09-24 16:11:00,
2013-09-24 11:17:00,69.1,57.4,29.82,NNW,330,3.0,13.0,72,0.00,,,0.00,meteohub,2013-09-24 16:17:00,
2013-09-24 11:22:00,70.0,57.6,29.82,NW,307,2.0,13.0,69,0.00,,,0.00,meteohub,2013-09-24 16:22:00,
2013-09-24 11:27:00,70.0,57.9,29.82,North,355,3.0,13.0,68,0.00,,,0.00,meteohub,2013-09-24 16:27:00,
2013-09-24 11:32:00,71.1,57.9,29.82,NNW,327,2.0,12.0,68,0.00,,,0.00,meteohub,2013-09-24 16:32:00,
2013-09-24 11:37:00,70.0,57.9,29.82,NW,319,0.0,13.0,68,0.00,,,0.00,meteohub,2013-09-24 16:37:00,
2013-09-24 11:42:00,70.0,57.9,29.82,North,0,2.0,13.0,68,0.00,,,0.00,meteohub,2013-09-24 16:42:00,
2013-09-24 11:47:00,70.0,57.7,29.82,NNW,342,9.0,13.0,70,0.00,,,0.00,meteohub,2013-09-24 16:47:00,
2013-09-24 11:52:00,70.0,57.6,29.83,NW,304,1.0,16.0,69,0.00,,,0.00,meteohub,2013-09-24 16:52:00,
2013-09-24 11:57:00,69.1,57.4,29.83,NNE,23,3.0,16.0,69,0.00,,,0.00,meteohub,2013-09-24 16:57:00,
2013-09-24 12:02:00,69.1,57.6,29.83,NW,308,11.0,16.0,70,0.00,,,0.00,meteohub,2013-09-24 17:02:00,
2013-09-24 12:07:00,69.1,57.7,29.83,WNW,296,2.0,14.0,71,0.00,,,0.00,meteohub,2013-09-24 17:07:00,
2013-09-24 12:12:00,69.1,57.7,29.83,NNW,343,3.0,14.0,70,0.00,,,0.00,meteohub,2013-09-24 17:12:00,
2013-09-24 12:17:00,69.1,57.9,29.82,NW,322,4.0,14.0,70,0.00,,,0.00,meteohub,2013-09-24 17:17:00,
2013-09-24 12:22:00,70.0,58.1,29.83,WNW,299,4.0,12.0,71,0.00,,,0.00,meteohub,2013-09-24 17:22:00,
2013-09-24 12:27:00,71.1,58.1,29.82,WNW,291,1.0,11.0,68,0.00,,,0.00,meteohub,2013-09-24 17:27:00,
2013-09-24 12:32:00,71.1,57.7,29.82,NW,313,4.0,14.0,69,0.00,,,0.00,meteohub,2013-09-24 17:32:00,
2013-09-24 12:37:00,72.0,58.3,29.82,NW,324,4.0,14.0,66,0.00,,,0.00,meteohub,2013-09-24 17:37:00,
2013-09-24 12:42:00,72.0,58.5,29.82,NW,315,3.0,13.0,66,0.00,,,0.00,meteohub,2013-09-24 17:42:00,
2013-09-24 12:47:00,72.0,58.3,29.82,NW,323,5.0,12.0,66,0.00,,,0.00,meteohub,2013-09-24 17:47:00,
2013-09-24 12:52:00,71.1,58.8,29.82,NNW,343,1.0,12.0,67,0.00,,,0.00,meteohub,2013-09-24 17:52:00,
2013-09-24 12:57:00,71.1,57.9,29.82,NNW,328,10.0,12.0,67,0.00,,,0.00,meteohub,2013-09-24 17:57:00,
2013-09-24 13:02:00,71.1,58.5,29.83,NNW,342,3.0,12.0,66,0.00,,,0.00,meteohub,2013-09-24 18:02:00,
2013-09-24 13:07:00,71.1,58.3,29.83,NE,44,3.0,12.0,67,0.00,,,0.00,meteohub,2013-09-24 18:07:00,
2013-09-24 13:12:00,70.0,58.5,29.82,NW,318,6.0,12.0,67,0.00,,,0.00,meteohub,2013-09-24 18:12:00,
2013-09-24 13:17:00,70.0,58.1,29.83,NNE,15,5.0,10.0,68,0.00,,,0.00,meteohub,2013-09-24 18:17:00,
2013-09-24 13:22:00,70.0,58.3,29.83,WNW,282,3.0,14.0,69,0.00,,,0.00,meteohub,2013-09-24 18:22:00,
2013-09-24 13:27:00,70.0,58.6,29.83,NNW,327,10.0,14.0,69,0.00,,,0.00,meteohub,2013-09-24 18:27:00,
2013-09-24 13:32:00,70.0,58.1,29.83,NW,309,3.0,15.0,70,0.00,,,0.00,meteohub,2013-09-24 18:32:00,
2013-09-24 13:37:00,70.0,58.3,29.83,NW,304,7.0,15.0,69,0.00,,,0.00,meteohub,2013-09-24 18:37:00,
2013-09-24 13:42:00,70.0,58.3,29.83,NNW,345,0.0,15.0,68,0.00,,,0.00,meteohub,2013-09-24 18:42:00,
2013-09-24 13:47:00,70.0,57.6,29.83,NNW,336,2.0,11.0,67,0.00,,,0.00,meteohub,2013-09-24 18:47:00,
2013-09-24 13:52:00,69.1,57.4,29.83,WNW,303,2.0,10.0,68,0.00,,,0.00,meteohub,2013-09-24 18:52:00,
2013-09-24 13:57:00,69.1,57.9,29.83,NNW,328,0.0,9.0,70,0.00,,,0.00,meteohub,2013-09-24 18:57:00,
2013-09-24 14:02:00,69.1,57.9,29.83,North,0,3.0,14.0,71,0.00,,,0.00,meteohub,2013-09-24 19:02:00,
2013-09-24 14:07:00,68.0,57.9,29.83,NNW,346,4.0,14.0,70,0.00,,,0.00,meteohub,2013-09-24 19:07:00,
2013-09-24 14:12:00,68.0,58.1,29.83,WNW,302,3.0,14.0,71,0.00,,,0.00,meteohub,2013-09-24 19:12:00,
2013-09-24 14:17:00,68.0,57.6,29.83,North,5,4.0,14.0,70,0.00,,,0.00,meteohub,2013-09-24 19:17:00,
2013-09-24 14:22:00,68.0,57.6,29.83,North,355,2.0,10.0,70,0.00,,,0.00,meteohub,2013-09-24 19:22:00,
2013-09-24 14:27:00,66.9,57.6,29.83,NE,45,2.0,10.0,72,0.00,,,0.00,meteohub,2013-09-24 19:27:00,
2013-09-24 14:32:00,66.9,57.9,29.83,North,350,4.0,7.0,73,0.00,,,0.00,meteohub,2013-09-24 19:32:00,
2013-09-24 14:37:00,68.0,57.6,29.83,NNW,346,5.0,9.0,73,0.00,,,0.00,meteohub,2013-09-24 19:37:00,
2013-09-24 14:42:00,68.0,57.7,29.83,NW,326,0.0,10.0,73,0.00,,,0.00,meteohub,2013-09-24 19:42:00,
2013-09-24 14:47:00,68.0,57.9,29.83,NE,36,3.0,10.0,73,0.00,,,0.00,meteohub,2013-09-24 19:47:00,
2013-09-24 14:52:00,68.0,57.7,29.83,NNW,340,3.0,11.0,70,0.00,,,0.00,meteohub,2013-09-24 19:52:00,
2013-09-24 14:57:00,68.0,58.1,29.83,NNE,13,2.0,11.0,71,0.00,,,0.00,meteohub,2013-09-24 19:57:00,
2013-09-24 15:02:00,68.0,58.1,29.83,North,9,0.0,8.0,71,0.00,,,0.00,meteohub,2013-09-24 20:02:00,
2013-09-24 15:07:00,68.0,58.5,29.83,WNW,298,2.0,8.0,71,0.00,,,0.00,meteohub,2013-09-24 20:07:00,
2013-09-24 15:12:00,68.0,58.6,29.83,WNW,303,3.0,11.0,72,0.00,,,0.00,meteohub,2013-09-24 20:12:00,
2013-09-24 15:17:00,69.1,58.3,29.83,NE,52,5.0,11.0,71,0.00,,,0.00,meteohub,2013-09-24 20:17:00,
2013-09-24 15:22:00,69.1,59.0,29.83,NE,38,5.0,11.0,71,0.00,,,0.00,meteohub,2013-09-24 20:22:00,
2013-09-24 15:27:00,69.1,58.3,29.83,NNE,12,9.0,10.0,70,0.00,,,0.00,meteohub,2013-09-24 20:27:00,
2013-09-24 15:32:00,69.1,58.5,29.84,NE,40,9.0,10.0,70,0.00,,,0.00,meteohub,2013-09-24 20:32:00,
2013-09-24 15:37:00,70.0,58.5,29.84,NW,315,8.0,12.0,69,0.00,,,0.00,meteohub,2013-09-24 20:37:00,
2013-09-24 15:42:00,69.1,58.3,29.84,NNW,334,5.0,12.0,69,0.00,,,0.00,meteohub,2013-09-24 20:42:00,
2013-09-24 15:47:00,70.0,57.7,29.84,North,355,1.0,12.0,70,0.00,,,0.00,meteohub,2013-09-24 20:47:00,
2013-09-24 15:52:00,69.1,58.3,29.84,NW,323,4.0,9.0,69,0.00,,,0.00,meteohub,2013-09-24 20:52:00,
2013-09-24 15:57:00,69.1,57.9,29.84,NW,317,1.0,8.0,70,0.00,,,0.00,meteohub,2013-09-24 20:57:00,
2013-09-24 16:02:00,69.1,58.1,29.84,NW,313,1.0,7.0,69,0.00,,,0.00,meteohub,2013-09-24 21:02:00,
2013-09-24 16:07:00,69.1,58.3,29.84,NNW,344,2.0,6.0,70,0.00,,,0.00,meteohub,2013-09-24 21:07:00,
2013-09-24 16:12:00,70.0,58.3,29.84,NW,325,5.0,6.0,72,0.00,,,0.00,meteohub,2013-09-24 21:12:00,
2013-09-24 16:17:00,70.0,58.1,29.84,WNW,300,7.0,8.0,68,0.00,,,0.00,meteohub,2013-09-24 21:17:00,
2013-09-24 16:22:00,70.0,57.6,29.84,NW,323,2.0,8.0,67,0.00,,,0.00,meteohub,2013-09-24 21:22:00,
2013-09-24 16:27:00,70.0,57.9,29.84,NW,322,2.0,8.0,69,0.00,,,0.00,meteohub,2013-09-24 21:27:00,
2013-09-24 16:32:00,70.0,57.7,29.84,NW,325,2.0,7.0,69,0.00,,,0.00,meteohub,2013-09-24 21:32:00,
2013-09-24 16:37:00,69.1,58.3,29.84,WNW,300,2.0,6.0,71,0.00,,,0.00,meteohub,2013-09-24 21:37:00,
2013-09-24 16:42:00,69.1,58.3,29.84,NW,311,2.0,6.0,69,0.00,,,0.00,meteohub,2013-09-24 21:42:00,
2013-09-24 16:47:00,70.0,58.3,29.84,NW,310,4.0,5.0,71,0.00,,,0.00,meteohub,2013-09-24 21:47:00,
2013-09-24 16:52:00,70.0,59.0,29.84,WNW,300,2.0,5.0,69,0.00,,,0.00,meteohub,2013-09-24 21:52:00,
2013-09-24 16:57:00,70.0,58.3,29.84,WNW,303,0.0,8.0,70,0.00,,,0.00,meteohub,2013-09-24 21:57:00,
2013-09-24 17:02:00,70.0,58.3,29.84,WNW,297,2.0,8.0,70,0.00,,,0.00,meteohub,2013-09-24 22:02:00,
2013-09-24 17:07:00,70.0,58.1,29.84,NW,313,2.0,7.0,68,0.00,,,0.00,meteohub,2013-09-24 22:07:00,
2013-09-24 17:12:00,70.0,58.6,29.84,North,355,4.0,7.0,69,0.00,,,0.00,meteohub,2013-09-24 22:12:00,
2013-09-24 17:17:00,70.0,58.6,29.84,NNW,331,0.0,7.0,69,0.00,,,0.00,meteohub,2013-09-24 22:17:00,
2013-09-24 17:22:00,70.0,58.6,29.84,NNW,329,5.0,7.0,69,0.00,,,0.00,meteohub,2013-09-24 22:22:00,
2013-09-24 17:27:00,70.0,58.3,29.84,NNW,333,3.0,10.0,68,0.00,,,0.00,meteohub,2013-09-24 22:27:00,
2013-09-24 17:32:00,71.1,58.6,29.84,WNW,295,0.0,10.0,67,0.00,,,0.00,meteohub,2013-09-24 22:32:00,
2013-09-24 17:37:00,71.1,58.3,29.84,North,5,2.0,9.0,65,0.00,,,0.00,meteohub,2013-09-24 22:37:00,
2013-09-24 17:42:00,70.0,58.1,29.84,NNW,341,0.0,9.0,66,0.00,,,0.00,meteohub,2013-09-24 22:42:00,
2013-09-24 17:47:00,70.0,58.6,29.84,NNW,346,0.0,6.0,68,0.00,,,0.00,meteohub,2013-09-24 22:47:00,
2013-09-24 17:52:00,70.0,58.3,29.84,North,11,0.0,6.0,69,0.00,,,0.00,meteohub,2013-09-24 22:52:00,
2013-09-24 18:02:00,69.1,58.5,29.84,North,355,3.0,3.0,69,0.00,,,0.00,meteohub,2013-09-24 23:02:00,
2013-09-24 18:07:00,69.1,58.6,29.84,NNE,17,4.0,5.0,68,0.00,,,0.00,meteohub,2013-09-24 23:07:00,
2013-09-24 18:12:00,69.1,58.6,29.84,North,10,3.0,5.0,70,0.00,,,0.00,meteohub,2013-09-24 23:12:00,
2013-09-24 18:18:00,69.1,58.8,29.84,NNW,327,3.0,6.0,70,0.00,,,0.00,meteohub,2013-09-24 23:18:00,
2013-09-24 18:23:00,69.1,58.6,29.84,NNW,333,0.0,6.0,70,0.00,,,0.00,meteohub,2013-09-24 23:23:00,
2013-09-24 18:28:00,68.0,58.6,29.84,North,355,0.0,6.0,72,0.00,,,0.00,meteohub,2013-09-24 23:28:00,
2013-09-24 18:33:00,68.0,58.8,29.84,North,355,0.0,4.0,72,0.00,,,0.00,meteohub,2013-09-24 23:33:00,
2013-09-24 18:38:00,68.0,59.0,29.84,North,355,0.0,4.0,73,0.00,,,0.00,meteohub,2013-09-24 23:38:00,
2013-09-24 18:43:00,66.9,58.6,29.84,North,355,0.0,4.0,75,0.00,,,0.00,meteohub,2013-09-24 23:43:00,
2013-09-24 18:48:00,66.9,58.8,29.84,North,355,0.0,0.0,76,0.00,,,0.00,meteohub,2013-09-24 23:48:00,
2013-09-24 18:53:00,66.0,58.8,29.84,North,355,0.0,0.0,76,0.00,,,0.00,meteohub,2013-09-24 23:53:00,
2013-09-24 18:58:00,66.0,59.2,29.85,North,355,0.0,0.0,77,0.00,,,0.00,meteohub,2013-09-24 23:58:00,
2013-09-24 19:04:00,64.9,58.8,29.84,North,355,0.0,0.0,78,0.00,,,0.00,meteohub,2013-09-25 00:04:00,
2013-09-24 19:09:00,64.9,58.1,29.84,North,355,0.0,0.0,79,0.00,,,0.00,meteohub,2013-09-25 00:09:00,
2013-09-24 19:14:00,64.0,58.3,29.84,North,355,0.0,0.0,81,0.00,,,0.00,meteohub,2013-09-25 00:14:00,
2013-09-24 19:19:00,64.0,57.9,29.84,North,355,0.0,0.0,81,0.00,,,0.00,meteohub,2013-09-25 00:19:00,
2013-09-24 19:24:00,63.0,57.6,29.84,North,355,0.0,0.0,82,0.00,,,0.00,meteohub,2013-09-25 00:24:00,
2013-09-24 19:29:00,63.0,57.4,29.83,North,355,0.0,0.0,82,0.00,,,0.00,meteohub,2013-09-25 00:29:00,
2013-09-24 19:34:00,62.1,57.0,29.84,North,355,0.0,0.0,83,0.00,,,0.00,meteohub,2013-09-25 00:34:00,
2013-09-24 19:39:00,61.0,57.0,29.84,North,355,0.0,0.0,83,0.00,,,0.00,meteohub,2013-09-25 00:39:00,
2013-09-24 19:44:00,61.0,56.8,29.84,North,355,0.0,0.0,84,0.00,,,0.00,meteohub,2013-09-25 00:44:00,
2013-09-24 19:49:00,60.1,56.7,29.84,North,355,0.0,0.0,85,0.00,,,0.00,meteohub,2013-09-25 00:49:00,
2013-09-24 19:54:00,60.1,56.8,29.84,North,355,0.0,0.0,85,0.00,,,0.00,meteohub,2013-09-25 00:54:00,
2013-09-24 19:59:00,59.0,56.5,29.84,North,355,0.0,0.0,86,0.00,,,0.00,meteohub,2013-09-25 00:59:00,
2013-09-24 20:04:00,59.0,56.3,29.84,North,355,0.0,0.0,86,0.00,,,0.00,meteohub,2013-09-25 01:04:00,
2013-09-24 20:09:00,59.0,56.3,29.85,North,355,0.0,0.0,86,0.00,,,0.00,meteohub,2013-09-25 01:09:00,
2013-09-24 20:14:00,57.9,56.1,29.85,North,355,0.0,1.0,86,0.00,,,0.00,meteohub,2013-09-25 01:14:00,
2013-09-24 20:20:00,57.9,56.5,29.85,North,355,0.0,1.0,87,0.00,,,0.00,meteohub,2013-09-25 01:20:00,
2013-09-24 20:25:00,57.9,56.1,29.85,North,355,0.0,0.0,88,0.00,,,0.00,meteohub,2013-09-25 01:25:00,
2013-09-24 20:30:00,57.0,56.1,29.85,North,355,0.0,0.0,88,0.00,,,0.00,meteohub,2013-09-25 01:30:00,
2013-09-24 20:35:00,57.0,55.9,29.85,North,355,0.0,0.0,89,0.00,,,0.00,meteohub,2013-09-25 01:35:00,
2013-09-24 20:40:00,57.0,55.9,29.85,North,355,0.0,0.0,89,0.00,,,0.00,meteohub,2013-09-25 01:40:00,
2013-09-24 20:45:00,57.0,56.1,29.85,North,355,0.0,0.0,89,0.00,,,0.00,meteohub,2013-09-25 01:45:00,
2013-09-24 20:50:00,55.9,55.8,29.85,North,355,0.0,0.0,89,0.00,,,0.00,meteohub,2013-09-25 01:50:00,
2013-09-24 20:55:00,55.9,55.6,29.85,North,355,0.0,0.0,89,0.00,,,0.00,meteohub,2013-09-25 01:55:00,
2013-09-24 21:00:00,55.9,55.9,29.86,North,355,0.0,0.0,90,0.00,,,0.00,meteohub,2013-09-25 02:00:00,
2013-09-24 21:05:00,55.9,55.8,29.86,North,355,0.0,0.0,90,0.00,,,0.00,meteohub,2013-09-25 02:05:00,
2013-09-24 21:10:00,55.0,55.0,29.86,North,355,0.0,0.0,91,0.00,,,0.00,meteohub,2013-09-25 02:10:00,
2013-09-24 21:15:00,55.0,54.9,29.86,North,355,0.0,0.0,91,0.00,,,0.00,meteohub,2013-09-25 02:15:00,
2013-09-24 21:21:00,55.0,54.7,29.86,North,355,0.0,0.0,91,0.00,,,0.00,meteohub,2013-09-25 02:21:00,
2013-09-24 21:26:00,55.0,54.7,29.86,North,355,0.0,0.0,91,0.00,,,0.00,meteohub,2013-09-25 02:26:00,
2013-09-24 21:31:00,55.0,54.7,29.87,North,355,0.0,1.0,92,0.00,,,0.00,meteohub,2013-09-25 02:31:00,
2013-09-24 21:36:00,55.0,55.0,29.87,North,355,0.0,1.0,92,0.00,,,0.00,meteohub,2013-09-25 02:36:00,
2013-09-24 21:41:00,55.0,54.7,29.87,North,355,0.0,1.0,92,0.00,,,0.00,meteohub,2013-09-25 02:41:00,
2013-09-24 21:46:00,55.0,55.0,29.87,NE,49,0.0,0.0,93,0.00,,,0.00,meteohub,2013-09-25 02:46:00,
2013-09-24 21:51:00,55.0,55.2,29.87,NE,46,1.0,6.0,92,0.00,,,0.00,meteohub,2013-09-25 02:51:00,
2013-09-24 21:56:00,55.0,55.4,29.87,NE,46,0.0,6.0,92,0.00,,,0.00,meteohub,2013-09-25 02:56:00,
2013-09-24 22:01:00,55.0,55.6,29.87,NE,46,0.0,6.0,93,0.00,,,0.00,meteohub,2013-09-25 03:01:00,
2013-09-24 22:06:00,55.0,55.6,29.87,ESE,103,0.0,4.0,93,0.00,,,0.00,meteohub,2013-09-25 03:06:00,
2013-09-24 22:11:00,55.0,55.6,29.87,NE,42,0.0,2.0,93,0.00,,,0.00,meteohub,2013-09-25 03:11:00,
2013-09-24 22:16:00,54.0,55.2,29.87,NE,42,0.0,2.0,92,0.00,,,0.00,meteohub,2013-09-25 03:16:00,
2013-09-24 22:21:00,54.0,55.0,29.87,NE,34,0.0,2.0,92,0.00,,,0.00,meteohub,2013-09-25 03:21:00,
2013-09-24 22:27:00,54.0,54.9,29.87,NNE,30,0.0,0.0,93,0.00,,,0.00,meteohub,2013-09-25 03:27:00,
2013-09-24 22:32:00,54.0,55.2,29.87,NNE,30,0.0,0.0,94,0.00,,,0.00,meteohub,2013-09-25 03:32:00,
2013-09-24 22:37:00,55.0,55.4,29.87,NE,44,4.0,0.0,94,0.00,,,0.00,meteohub,2013-09-25 03:37:00,
2013-09-24 22:42:00,55.0,55.6,29.87,NE,45,0.0,4.0,94,0.00,,,0.00,meteohub,2013-09-25 03:42:00,
2013-09-24 22:47:00,55.9,55.4,29.87,NE,45,0.0,4.0,94,0.00,,,0.00,meteohub,2013-09-25 03:47:00,
2013-09-24 22:52:00,55.9,55.4,29.87,NE,45,0.0,4.0,94,0.00,,,0.00,meteohub,2013-09-25 03:52:00,
2013-09-24 22:57:00,55.9,55.4,29.88,NE,45,0.0,1.0,94,0.00,,,0.00,meteohub,2013-09-25 03:57:00,
2013-09-24 23:01:00,55.0,55.0,29.88,NE,45,0.0,1.0,93,0.00,,,0.00,meteohub,2013-09-25 04:01:00,
2013-09-24 23:02:00,55.0,54.7,29.88,NE,45,0.0,1.0,93,0.00,,,0.00,meteohub,2013-09-25 04:02:00,
2013-09-24 23:03:00,55.0,54.0,29.88,NE,45,0.0,1.0,92,0.00,,,0.00,meteohub,2013-09-25 04:03:00,
2013-09-24 23:07:00,55.0,53.2,29.88,NE,45,0.0,1.0,92,0.00,,,0.00,meteohub,2013-09-25 04:07:00,
2013-09-24 23:12:00,55.0,53.2,29.88,NE,45,0.0,0.0,92,0.00,,,0.00,meteohub,2013-09-25 04:12:00,
2013-09-24 23:17:00,54.0,53.2,29.88,NE,45,0.0,0.0,92,0.00,,,0.00,meteohub,2013-09-25 04:17:00,
2013-09-24 23:22:00,54.0,52.9,29.88,NE,45,0.0,0.0,92,0.00,,,0.00,meteohub,2013-09-25 04:22:00,
2013-09-24 23:27:00,54.0,52.5,29.88,NE,45,0.0,0.0,92,0.00,,,0.00,meteohub,2013-09-25 04:27:00,
2013-09-24 23:32:00,53.1,52.2,29.88,NE,45,0.0,0.0,92,0.00,,,0.00,meteohub,2013-09-25 04:32:00,
2013-09-24 23:38:00,53.1,52.3,29.88,NE,45,0.0,0.0,92,0.00,,,0.00,meteohub,2013-09-25 04:38:00,
2013-09-24 23:43:00,53.1,52.2,29.88,NE,45,0.0,0.0,93,0.00,,,0.00,meteohub,2013-09-25 04:43:00,
2013-09-24 23:48:00,53.1,52.2,29.88,NE,45,0.0,0.0,93,0.00,,,0.00,meteohub,2013-09-25 04:48:00,
2013-09-24 23:53:00,53.1,53.2,29.88,NE,45,0.0,0.0,93,0.00,,,0.00,meteohub,2013-09-25 04:53:00,
2013-09-24 23:58:00,53.1,54.0,29.88,NE,45,0.0,0.0,93,0.00,,,0.00,meteohub,2013-09-25 04:58:00,